STARLINK-32114, 60287

Orbit data source: Space-Track

STARLINK-32114, 60287 is a payload satellite owned by SpaceX/Seattle (US) in LEO that was launched on Sun, 28 Jul 2024 UTC via an FALCON 9 launch vehicle from the Air Force Eastern Test Range (AFETR). Payload-class satellites include a variety of spacecraft equipped with specific instruments for various scientific and technological missions. These include communications satellites like Starlink; space stations such as the ISS; scientific satellites like the Hubble; Earth observation satellites from companies like Planet Labs, Umbra, and HawkEye 360; GPS; miniature CubeSats for education and research; and military/defense satellites.

Loading next visibility...
Identifier
60287, 2024-132K
Orbit
LEO
Country
Flag of USUS
Related business
Manufacturer
SpaceX/Seattle
Mission
Operational Commercial Communications
Bus & Motor
STARLINK V2M, Unknown motor
Mass
730 kg wet, ~700 kg dry
Launch date (UTC)
2024-07-28 (1 year ago)
Launch vehicle
FALCON 9
Launch site
Air Force Eastern Test Range (AFETR)
Object type
Payload
Rocket body
Debris
Shape & HBR
Box + 2 Pan, 17.7 m
Radar Cross Section
33.884 m², Large (>1 m²)

Expand to show TLE details & history
Last TLE update: 16 hours ago

TLE from 16 hours ago
0 STARLINK-32114
1 60287U 24132K   25346.60981257  .00004587  00000-0  16683-3 0  9994
2 60287  53.1603  97.2221 0001377 105.9632 254.1521 15.30213792 78222
Epoch: 2025-12-12T14:38Z
TLE epoch observation values (Epoch: 2025-12-12T14:38:07.806Z)
Latitude
0.00004°
Longitude
156.14063°
Altitude
476.331 km
Speed
7.629 km/s
True Right ascension
06h 28m 53s
True Declination
0° 00' 00"
Sunlit
Object was in full shadow at epoch
Visualization orbit readout
Latitude
Unknown
Longitude
Unknown
Altitude
Unknown
Speed
Unknown
Apparent Right ascension
Unknown
Apparent Declination
Unknown
Sunlit
N/A
Visualization observer readout
Local Sidereal Time
05:22:57
Azimuth
Unknown
Elevation
Unknown
Doppler factor
Unknown
Orbital elements
Apogee altitude
476.374 km
Perigee altitude
474.487 km
Semi-major axis
6,853.567 km
Eccentricity
0.00014
Inclination
53.1603°
RAAN
97.2221°
Arg. of periapsis
105.9632°
True anomaly
254.13692°
Mean anomaly
254.1521°
Eccentric anomaly
254.14451°
Mean motion
3.82532 °/min
Orbital period
94.11 mins
BSTAR
0.00016683
Loading maneuver chart data...
Computing Atmospheric mass density...
Loading historical data...
Loading historical data...
Loading historical data...
Loading historical data...
Loading historical data...
Loading historical data...
Loading historical data...

Documentation

Showing up to 5 results
|